"Pseudo-MPEC" for P10Lo2o

Created 2019 Jan 27 1:18:28 UT using Find_Orb

Click here for an explanation of pseudo-MPECs

 
 Astrometry: 
     P10Lo2o  C2019 01 10.x5AstrometryY?=]_?J1x_JMWredacted;P#ruj8QE4n)3\keqJF51
     P10Lo2o  C2019 01 10aD-eclick0+KZX\d5.0R1wgPlp=here(;\SeAA@Nk*YpdkS(Z;FDF51
     P10Lo2o  C2019 01 10:kxj7na?cDr(?9._gTi$-E1iYMjXA!rf=$forH$C2H:h/#'wWKQ[F51
     P10Lo2o  C2019 01 10m0@lh;Ga'G$+p\)(+EvM.yT_VY7explanationllh_nRY:Ata\!cF51
     P10Lo2o ^C2019 01 12.65208010 02 08.725+25 43 08.62   ~1CJI 22.09GVNEOCP568
     P10Lo2o ^C2019 01 12.65302910 02 08.674+25 43 08.80   ~1CJI 22.15GVNEOCP568
     P10Lo2o ^C2019 01 12.65398110 02 08.623+25 43 09.03   ~1CJI 22.19GVNEOCP568

Station data:
(568) Mauna Kea  (N19.826116 W155.472200)  US/Hawaii.
(F51) Pan-STARRS 1, Haleakala  (N20.707235 W156.255910)  US/Hawaii.
   Observers N. Primak, A. Schultz, S. Watters, J. Thiel, T. Goggia. Measurer
   PS1 Science Consortium. 1.8-m Ritchey-Chrétien + CCD.

Orbital elements:  P10Lo2o
   Perihelion 2018 Jun 11.598871 +/- 497 TT = 14:22:22 (JD 2458281.098871)
Epoch 2019 Jan 12.0 TT = JDT 2458495.5   Earth MOID: 0.6403   AutoNEOCP
M  49.63950182 +/- 90               (J2000 ecliptic)
n   0.23152630 +/- 0.196            Peri.   37.56095 +/- 54
a   2.62665168 +/- 1.47             Node   359.20495 +/- 21
e   0.3827496 +/- 0.248             Incl.   10.36506 +/- 53
P   4.26                   H 19.0   G  0.15   U 11.7  SR
q 1.62130174 +/- 1.47    Q 3.63200161 +/- 33.9
From 7 observations 2019 Jan. 10-12; mean residual 0".07
Residuals in arcseconds: 
190110 F51  .06+  .04-    190110 F51  .13-  .03+    190112 568  .00   .00     
190110 F51  .18+  .05+    190112 568  .00   .02+    
190110 F51  .11-  .04-    190112 568  .00   .02-    

Ephemerides (geocentric):
Date (UTC) HH   RA              Dec         delta   r     elong  mag " sig PA
---- -- -- --  -------------   -----------  ------ ------ -----  --- ---- ---
2019 01 27 01  09 46 58.163   +26 34 45.33  1.3979 2.3533 161.8 22.1 5853   6
2019 01 27 02  09 46 55.147   +26 34 52.77  1.3980 2.3535 161.8 22.1 5912   6
2019 01 27 03  09 46 52.130   +26 35 00.20  1.3980 2.3537 161.8 22.1 5973   6
2019 01 27 04  09 46 49.111   +26 35 07.62  1.3981 2.3539 161.9 22.1 6034   6
2019 01 27 05  09 46 46.091   +26 35 15.02  1.3981 2.3541 161.9 22.1 6096   6
2019 01 27 06  09 46 43.069   +26 35 22.41  1.3982 2.3542 162.0 22.1 6158   6
2019 01 27 07  09 46 40.046   +26 35 29.79  1.3982 2.3544 162.0 22.1 6222   6
2019 01 27 08  09 46 37.021   +26 35 37.16  1.3983 2.3546 162.0 22.1 6286   6
2019 01 27 09  09 46 33.995   +26 35 44.51  1.3983 2.3548 162.1 22.1 6351   6
2019 01 27 10  09 46 30.967   +26 35 51.85  1.3984 2.3550 162.1 22.1 6417   6
2019 01 27 11  09 46 27.938   +26 35 59.18  1.3985 2.3551 162.2 22.1 6484   6
2019 01 27 12  09 46 24.908   +26 36 06.49  1.3985 2.3553 162.2 22.1 6552   6
2019 01 27 13  09 46 21.876   +26 36 13.79  1.3986 2.3555 162.2 22.1 6620   6
2019 01 27 14  09 46 18.843   +26 36 21.08  1.3986 2.3557 162.3 22.1 6690   6
2019 01 27 15  09 46 15.808   +26 36 28.35  1.3987 2.3559 162.3 22.1 6760   6
2019 01 27 16  09 46 12.772   +26 36 35.61  1.3987 2.3561 162.3 22.1 6831   6
2019 01 27 17  09 46 09.734   +26 36 42.86  1.3988 2.3562 162.4 22.1 6904   6
2019 01 27 18  09 46 06.695   +26 36 50.09  1.3988 2.3564 162.4 22.1 6977   6
2019 01 27 19  09 46 03.655   +26 36 57.31  1.3989 2.3566 162.5 22.1 7051   6
2019 01 27 20  09 46 00.614   +26 37 04.52  1.3989 2.3568 162.5 22.1 7126   6
2019 01 27 21  09 45 57.570   +26 37 11.71  1.3990 2.3570 162.5 22.1 7203   6
2019 01 27 22  09 45 54.526   +26 37 18.89  1.3991 2.3571 162.6 22.1 7280   5
2019 01 27 23  09 45 51.480   +26 37 26.05  1.3991 2.3573 162.6 22.1 7359   5
2019 01 28 00  09 45 48.433   +26 37 33.20  1.3992 2.3575 162.7 22.1 7438   5
2019 01 28 01  09 45 45.385   +26 37 40.34  1.3992 2.3577 162.7 22.1 7519   5
2019 01 28 02  09 45 42.335   +26 37 47.47  1.3993 2.3579 162.7 22.1 7601   5
2019 01 28 03  09 45 39.284   +26 37 54.58  1.3994 2.3581 162.8 22.1 7684   5
2019 01 28 04  09 45 36.232   +26 38 01.68  1.3994 2.3582 162.8 22.1 7768   5
2019 01 28 05  09 45 33.178   +26 38 08.76  1.3995 2.3584 162.9 22.1 7853   5
2019 01 28 06  09 45 30.123   +26 38 15.83  1.3995 2.3586 162.9 22.1 7940   5
2019 01 28 07  09 45 27.067   +26 38 22.89  1.3996 2.3588 162.9 22.1 8028   5
2019 01 28 08  09 45 24.009   +26 38 29.93  1.3997 2.3590 163.0 22.1 8117   5
2019 01 28 09  09 45 20.950   +26 38 36.96  1.3997 2.3591 163.0 22.1 8208   5
2019 01 28 10  09 45 17.890   +26 38 43.97  1.3998 2.3593 163.0 22.1 8300   5
2019 01 28 11  09 45 14.829   +26 38 50.97  1.3999 2.3595 163.1 22.1 8393   5
2019 01 28 12  09 45 11.766   +26 38 57.96  1.3999 2.3597 163.1 22.1 8487   5
2019 01 28 13  09 45 08.702   +26 39 04.93  1.4000 2.3599 163.2 22.1 8583   5
2019 01 28 14  09 45 05.637   +26 39 11.89  1.4001 2.3600 163.2 22.1 8681   5
2019 01 28 15  09 45 02.571   +26 39 18.83  1.4001 2.3602 163.2 22.1 8780   5
2019 01 28 16  09 44 59.503   +26 39 25.76  1.4002 2.3604 163.3 22.1 8880   4
2019 01 28 17  09 44 56.434   +26 39 32.68  1.4002 2.3606 163.3 22.1 8982   4
2019 01 28 18  09 44 53.364   +26 39 39.58  1.4003 2.3608 163.3 22.1 9086   4
2019 01 28 19  09 44 50.293   +26 39 46.47  1.4004 2.3610 163.4 22.1 9191   4
2019 01 28 20  09 44 47.220   +26 39 53.34  1.4005 2.3611 163.4 22.1 9298   4
2019 01 28 21  09 44 44.146   +26 40 00.20  1.4005 2.3613 163.5 22.1 9407   4
2019 01 28 22  09 44 41.072   +26 40 07.04  1.4006 2.3615 163.5 22.1 9517   4
2019 01 28 23  09 44 37.996   +26 40 13.88  1.4007 2.3617 163.5 22.1 9629   4
2019 01 29 00  09 44 34.918   +26 40 20.69  1.4007 2.3619 163.6 22.1 9743   4